Location: Unspecified
(0.0000°N, 0.0000°E)
Time: 13:09:07
(UTC+00:00)

deb Explorer IX - Visible Passes

Search period start: 03 August 2015 00:00
Search period end: 13 August 2015 00:00
Orbit: 540 x 1154 km, 38.8° (Epoch: 01 August)

Date Brightness Start Highest point End Pass type
(mag) Time Alt. Az. Time Alt. Az. Time Alt. Az.
03 Aug ? 05:40:47 10° S 05:45:41 23° SE 05:51:15 10° E visible
03 Aug ? 18:29:19 10° NNW 18:33:53 42° NE 18:37:56 10° ESE visible
03 Aug ? 20:18:11 10° W 20:19:56 16° WSW 20:19:56 16° WSW visible
04 Aug ? 05:25:22 10° SSW 05:30:26 25° SE 05:36:13 10° E visible
04 Aug ? 20:03:28 10° WSW 20:05:59 14° SW 20:06:01 14° SW visible
05 Aug ? 05:09:59 10° SSW 05:15:10 28° SE 05:21:07 10° E visible
05 Aug ? 19:48:53 10° WSW 19:50:51 12° SW 19:52:05 11° SSW visible
06 Aug ? 04:54:37 10° SSW 04:59:53 31° SE 05:05:57 10° ENE visible
06 Aug ? 19:34:38 10° SW 19:35:43 11° SW 19:36:31 10° SSW visible
07 Aug ? 04:40:29 16° SSW 04:44:35 35° SE 04:50:45 10° ENE visible
08 Aug ? 04:26:31 25° S 04:29:16 39° SE 04:35:31 10° ENE visible
09 Aug ? 04:12:34 37° S 04:13:58 44° SE 04:20:13 10° ENE visible
10 Aug ? 03:58:35 50° SE 03:58:39 50° SE 04:04:54 10° ENE visible
10 Aug ? 05:41:16 10° W 05:46:32 29° NW 05:52:23 10° NNE visible
11 Aug ? 03:44:34 47° E 03:44:34 47° E 03:49:32 10° ENE visible
11 Aug ? 05:26:26 10° W 05:31:16 25° NW 05:36:39 10° NNE visible
12 Aug ? 03:30:31 34° ENE 03:30:31 34° ENE 03:34:08 10° ENE visible
12 Aug ? 05:12:23 13° WNW 05:16:00 22° NW 05:20:50 10° NNE visible
